[[{"header":{"parameterUnit":"m.s-1","parameterCategory":2,"la1":30.2991,"la2":30.254,"lo1":-89.0895,"lo2":-89.0444,"dy":0.0017,"dx":0.0017,"nx":28,"ny":28,"refTime":"2023-07-27T21:00:00:Z","depth":"0","parameterNumber":2,"parameterNumberName":"U-component_of_CURRENTS"},"data":[0,0,0,0,0,0,0,0,0,0,0,0,0,0,0,0,0,0,0,0,0,0,0,0,0,0,0,0,0,0,0,0,0,0,0,0,0,0,0,0,0,0,0,0,0,0,0,0,0,0,0,0,0,0,0,0,0,0,0.252,0.252,0,0.2493,0.2492,0.2491,0.2423,0.2422,0.2422,0.2421,0.2306,0.2304,0.2302,0,0,0,0,0,0,0,0,0,0,0,0,0,0.2487,0.2488,0.252,0.252,0.2521,0.2493,0.2492,0.2491,0.2423,0.2422,0.2422,0.2421,0.2307,0.2304,0.2301,0,0,0,0,0,0,0,0,0,0,0,0,0,0.2478,0.2488,0.252,0.2489,0.2487,0.2493,0.2492,0.249,0.2424,0.2422,0.2421,0.242,0.2308,0.2305,0.2301,0.2302,0,0,0.229,0.2289,0,0,0,0,0,0,0,0,0.2479,0.2478,0.2493,0.2491,0.2489,0.2467,0.2439,0.2425,0.2424,0.244,0.2421,0.242,0.2357,0.235,0.2338,0.2297,0.2292,0.229,0.2288,0.2286,0.2285,0,0,0,0,0,0,0,0.2479,0.2479,0.2502,0.2494,0.2491,0.2468,0.2465,0.2435,0.2398,0.2438,0.2435,0.2444,0.2354,0.2342,0.2335,0.229,0.229,0.2287,0.2285,0.2283,0.2341,0.2344,0,0,0,0,0,0,0.25,0.248,0.2503,0.2502,0.2489,0.247,0.2466,0.2469,0.24,0.2391,0.2445,0.2441,0.2348,0.2339,0.233,0.2386,0.2286,0.2283,0.2281,0.2337,0.2342,0.2346,0,0,0,0,0,0,0.25,0.2502,0.2504,0.2496,0.2496,0.2473,0.2476,0.2469,0.2458,0.2408,0.2395,0.2443,0.2347,0.2335,0.2342,0.2379,0.2281,0.2278,0.2333,0.2339,0.2344,0.246,0,0,0,0,0,0,0.2499,0.2502,0.2507,0.2498,0.2497,0.2509,0.2477,0.247,0.2469,0.2463,0.2402,0.239,0.2345,0.2348,0.2338,0.2372,0.2275,0.2328,0.2336,0.2342,0.2451,0.2468,0.2483,0,0,0,0,0,0.2497,0.2506,0.2507,0.251,0.2506,0.251,0.2507,0.2482,0.2471,0.2467,0.2456,0.2392,0.2385,0.2348,0.2336,0.2369,0.2325,0.2334,0.2341,0.2444,0.2465,0.2483,0,0,0,0,0,0,0.2489,0.2501,0.2501,0.2512,0.2516,0.2502,0.2505,0.2493,0.248,0.2479,0.2427,0.2415,0.2442,0.2401,0.2362,0.2415,0.2349,0.2355,0.2431,0.245,0.2466,0.2492,0.2273,0,0,0,0,0,0.2497,0.2508,0.2515,0.2526,0.2534,0.2524,0.2524,0.2511,0.2505,0.2497,0.2467,0.2455,0.2468,0.2454,0.2448,0.246,0.2494,0.2483,0.2499,0.2512,0.2532,0.2647,0.2676,0.2373,0.2373,0.2372,0,0,0.2496,0.2509,0.2512,0.2526,0.2529,0.255,0.2519,0.2528,0.2548,0.2488,0.2506,0.2505,0.249,0.2521,0.2528,0.2485,0.2622,0.2523,0.2534,0.2546,0.2659,0.2689,0.2715,0.2378,0.2377,0.2376,0,0,0.251,0.2517,0.2535,0.2548,0.2568,0.2569,0.2579,0.2578,0.2579,0.2602,0.2593,0.2631,0.2604,0.2627,0.263,0.2734,0.2712,0.2722,0.2804,0.2916,0.2942,0.2965,0.3065,0.3096,0.2718,0.2718,0.2718,0,0.251,0.2534,0.2539,0.2568,0.2584,0.2586,0.2609,0.2623,0.2626,0.2656,0.2621,0.2692,0.2666,0.2752,0.2791,0.2768,0.2826,0.2723,0.2937,0.2961,0.2982,0.3079,0.3112,0.2725,0.2724,0.2723,0.2723,0,0.2541,0.2563,0.258,0.262,0.2636,0.2656,0.2685,0.2713,0.2722,0.2746,0.2828,0.2829,0.2873,0.288,0.2857,0.3002,0.2994,0.2953,0.2884,0.302,0.3113,0.3145,0.2734,0.2732,0.273,0.2728,0,0,0.2526,0.2587,0.2592,0.2617,0.2662,0.2676,0.2742,0.2802,0.2861,0.2892,0.2974,0.3031,0.305,0.3062,0.3057,0.3145,0.3344,0.3115,0.3118,0.3208,0.3606,0.3657,0.3696,0.3342,0.3348,0.3353,0.3616,0,0.2546,0.2596,0.2627,0.2679,0.2704,0.2747,0.2805,0.2869,0.292,0.3002,0.3067,0.3133,0.3114,0.3139,0.3242,0.3311,0.3431,0.3277,0.3467,0.3473,0.3497,0.3736,0.3722,0.3961,0.3647,0.3652,0.3656,0,0.2563,0.2594,0.2636,0.271,0.2728,0.276,0.286,0.292,0.3055,0.31,0.3212,0.3251,0.3401,0.3343,0.3592,0.3497,0.358,0.3633,0.3643,0.3673,0.3586,0.3774,0.403,0.3794,0.3704,0.3701,0.3697,0,0.2531,0.2603,0.2631,0.2653,0.2737,0.2772,0.2827,0.2947,0.3013,0.3171,0.3231,0.3411,0.3493,0.3646,0.3765,0.3698,0.4031,0.394,0.408,0.4082,0.41,0.4095,0.4146,0.4153,0.4153,0.4152,0.4151,0,0.2532,0.2557,0.2615,0.2629,0.2678,0.2751,0.2831,0.2918,0.3052,0.3156,0.3277,0.3381,0.3577,0.3761,0.3856,0.4104,0.4124,0.4173,0.419,0.4141,0.4138,0.395,0.3831,0.4162,0.416,0.4158,0.4156,0,0.2486,0.2528,0.2561,0.2635,0.2657,0.269,0.2798,0.2868,0.3005,0.3142,0.3194,0.3418,0.3689,0.3887,0.4154,0.4232,0.4323,0.4497,0.4429,0.4435,0.4327,0.4218,0.4209,0.4097,0.4725,0.4728,0.4731,0,0.2463,0.2475,0.2533,0.2543,0.2568,0.263,0.2676,0.2819,0.2905,0.3153,0.3219,0.3515,0.3726,0.4168,0.4402,0.4684,0.4452,0.4796,0.4672,0.4399,0.4288,0.402,0.3902,0.4744,0.4747,0.4749,0.4751,0,0.2411,0.2429,0.2451,0.2469,0.2498,0.2544,0.2629,0.2688,0.2887,0.3021,0.3235,0.3423,0.3906,0.4194,0.4591,0.4781,0.4555,0.485,0.4601,0.4379,0.4063,0.3934,0.4455,0.4771,0.4769,0.4768,0.4767,0.4766,0.2355,0.2349,0.2371,0.2383,0.2409,0.2436,0.2463,0.2597,0.2726,0.2951,0.3174,0.3464,0.3914,0.4489,0.4617,0.4819,0.4689,0.4747,0.4664,0.4433,0.4245,0.4819,0.5115,0.5115,0.5115,0.5115,0.5115,0,0.2271,0.2272,0.2283,0.2285,0.2269,0.2322,0.2411,0.2452,0.258,0.287,0.3092,0.3583,0.3929,0.4289,0.4658,0.4581,0.4404,0.4489,0.4073,0.3989,0.4568,0.4482,0.4612,0.4613,0.4613,0.4613,0.4613,0.4613,0.2221,0.2193,0.2198,0.2133,0.2135,0.211,0.214,0.2249,0.2435,0.2753,0.3054,0.335,0.3775,0.4097,0.4188,0.422,0.3826,0.378,0.3599,0.3946,0.3958,0.3968,0.3854,0.3851,0.385,0.2909,0.2901,0.2896]},{"header":{"parameterUnit":"m.s-1","parameterCategory":2,"la1":30.2991,"la2":30.254,"lo1":-89.0895,"lo2":-89.0444,"dy":0.0017,"dx":0.0017,"nx":28,"ny":28,"refTime":"2023-07-27T21:00:00:Z","depth":"0","parameterNumber":3,"parameterNumberName":"V-component_of_CURRENTS"},"data":[0,0,0,0,0,0,0,0,0,0,0,0,0,0,0,0,0,0,0,0,0,0,0,0,0,0,0,0,0,0,0,0,0,0,0,0,0,0,0,0,0,0,0,0,0,0,0,0,0,0,0,0,0,0,0,0,0,0,0.051,0.051,0,0.0473,0.0472,0.0472,0.0428,0.0428,0.0427,0.0427,0.0316,0.0314,0.0312,0,0,0,0,0,0,0,0,0,0,0,0,0,0.0481,0.0482,0.051,0.051,0.0509,0.0473,0.0472,0.0471,0.0428,0.0428,0.0427,0.0426,0.0317,0.0314,0.0312,0,0,0,0,0,0,0,0,0,0,0,0,0,0.0473,0.0483,0.051,0.0484,0.0481,0.0473,0.0472,0.0471,0.0429,0.0428,0.0427,0.0426,0.0318,0.0315,0.0311,0.0306,0,0,0.03,0.0299,0,0,0,0,0,0,0,0,0.0474,0.0474,0.0488,0.0486,0.0483,0.0455,0.0422,0.0413,0.0429,0.0448,0.0427,0.0426,0.0357,0.035,0.0345,0.0301,0.0296,0.03,0.0298,0.0296,0.0295,0,0,0,0,0,0,0,0.0474,0.0475,0.0494,0.0488,0.0485,0.0453,0.0451,0.042,0.0406,0.0446,0.0443,0.0441,0.0355,0.0349,0.0342,0.0294,0.03,0.0297,0.0294,0.0293,0.0227,0.0228,0,0,0,0,0,0,0.0486,0.0476,0.0496,0.0493,0.0477,0.0454,0.0452,0.0464,0.0407,0.0399,0.0441,0.0439,0.0355,0.0346,0.0338,0.0346,0.0296,0.0293,0.0291,0.0227,0.0228,0.0228,0,0,0,0,0,0,0.0485,0.0488,0.0497,0.0483,0.0482,0.0456,0.0469,0.0464,0.0457,0.0405,0.0394,0.044,0.0354,0.0343,0.0319,0.034,0.0291,0.0288,0.0227,0.0227,0.0228,0.035,0,0,0,0,0,0,0.0485,0.0489,0.0503,0.0485,0.0484,0.0503,0.047,0.0464,0.0457,0.0453,0.04,0.0389,0.0353,0.0325,0.0316,0.0334,0.0285,0.0226,0.0227,0.0228,0.0345,0.0355,0.0363,0,0,0,0,0,0.0484,0.0509,0.0504,0.0506,0.0504,0.0504,0.0501,0.0477,0.0458,0.0465,0.0429,0.0391,0.0323,0.0323,0.0312,0.033,0.0226,0.0227,0.0228,0.0341,0.0353,0.0362,0,0,0,0,0,0,0.0498,0.0507,0.0501,0.0526,0.052,0.0497,0.0502,0.0483,0.0462,0.0453,0.0401,0.0388,0.0373,0.0331,0.0333,0.031,0.0266,0.0265,0.0356,0.0366,0.0375,0.04,0.0282,0,0,0,0,0,0.0511,0.0536,0.0529,0.0548,0.055,0.0527,0.0523,0.0507,0.0484,0.0474,0.044,0.0398,0.0369,0.0353,0.0317,0.031,0.0268,0.031,0.0319,0.0327,0.0338,0.0301,0.0308,0.0231,0.0231,0.0231,0,0,0.052,0.0529,0.0541,0.0553,0.0546,0.0567,0.0523,0.0523,0.0536,0.0464,0.047,0.0427,0.0372,0.0366,0.0354,0.0335,0.0325,0.0328,0.0335,0.0342,0.0303,0.031,0.0317,0.0232,0.0232,0.0231,0,0,0.0552,0.0561,0.0591,0.0598,0.0598,0.0592,0.0596,0.058,0.0569,0.0566,0.0519,0.0496,0.0449,0.0426,0.0404,0.0436,0.037,0.0414,0.0484,0.0449,0.0455,0.046,0.0417,0.0418,0.0422,0.0422,0.0422,0,0.0557,0.0604,0.0597,0.0627,0.0644,0.0611,0.0645,0.0635,0.0612,0.0615,0.0581,0.053,0.0483,0.0483,0.0492,0.046,0.042,0.0456,0.0463,0.0467,0.047,0.0424,0.0423,0.0428,0.0427,0.0427,0.0426,0,0.0614,0.065,0.0669,0.0708,0.0723,0.0745,0.0739,0.0744,0.0724,0.0714,0.0704,0.0642,0.0614,0.0593,0.0552,0.0556,0.0514,0.0479,0.0445,0.0486,0.0434,0.0431,0.0437,0.0434,0.0433,0.0431,0,0,0.0625,0.0696,0.0703,0.0742,0.077,0.0789,0.0819,0.0843,0.0873,0.0831,0.086,0.0802,0.0765,0.0736,0.0679,0.0647,0.0633,0.058,0.0575,0.0552,0.0546,0.0534,0.0529,0.0597,0.0597,0.0598,0.0502,0,0.067,0.0751,0.0777,0.0857,0.0899,0.0901,0.0943,0.0956,0.0952,0.0971,0.0905,0.09,0.082,0.0805,0.0765,0.0675,0.0629,0.0661,0.0496,0.0491,0.0489,0.0527,0.0562,0.0481,0.0498,0.0497,0.0497,0,0.0718,0.0771,0.0856,0.0948,0.0968,0.1012,0.108,0.1113,0.1126,0.1121,0.1102,0.1043,0.1002,0.0914,0.0786,0.0809,0.0686,0.0601,0.0595,0.0541,0.0474,0.044,0.0473,0.0233,0.0491,0.0491,0.0492,0,0.0734,0.083,0.0906,0.0934,0.1024,0.1066,0.1116,0.1157,0.1199,0.1214,0.1235,0.117,0.1138,0.0997,0.0821,0.0799,0.0668,0.0613,0.048,0.0477,0.0453,0.0449,0.0251,0.0501,0.0501,0.0502,0.0502,0,0.0775,0.0835,0.0922,0.0962,0.1065,0.1112,0.1212,0.1249,0.1305,0.1371,0.1312,0.133,0.1154,0.1052,0.0872,0.0687,0.0702,0.0504,0.046,0.0495,0.0496,0.0241,0.0109,0.0498,0.0499,0.0499,0.05,0,0.078,0.0835,0.0926,0.1032,0.1075,0.1145,0.1275,0.1347,0.1395,0.1474,0.1478,0.1448,0.1343,0.1153,0.0935,0.0763,0.0457,0.0488,0.0543,0.0508,0.0172,0.0048,-0.0151,-0.0243,0.0341,0.034,0.0339,0,0.0793,0.0838,0.0965,0.103,0.1084,0.1196,0.1284,0.1376,0.1455,0.1543,0.1584,0.1523,0.1509,0.1219,0.0912,0.0625,0.0422,0.0442,0.0405,0.017,-0.0003,-0.0063,-0.0131,0.0411,0.0411,0.0411,0.0411,0,0.0814,0.0852,0.093,0.1059,0.1163,0.1287,0.1415,0.1489,0.16,0.1676,0.1758,0.1761,0.1522,0.1288,0.0915,0.0697,0.0307,0.0432,0.0174,0.0033,-0.0031,-0.0145,0.0442,0.0412,0.0412,0.0412,0.0412,0.0412,0.0823,0.0877,0.0979,0.1102,0.1222,0.1367,0.1467,0.1601,0.1739,0.1891,0.1898,0.1986,0.1622,0.1144,0.0815,0.0246,0.0244,0.0077,-0.0056,-0.0096,-0.0177,0.0413,0.0343,0.0343,0.0343,0.0342,0.0342,0,0.0835,0.091,0.1024,0.1176,0.1298,0.1369,0.1551,0.1653,0.1811,0.2009,0.2116,0.2062,0.1582,0.1085,0.0316,-0.015,-0.0297,-0.0397,-0.0499,-0.0547,-0.0039,-0.0029,-0.0164,-0.0164,-0.0163,-0.0163,-0.0163,-0.0163,0.0849,0.0942,0.1007,0.1204,0.1318,0.1481,0.1583,0.1737,0.1906,0.2164,0.2324,0.243,0.2009,0.0592,-0.0412,-0.0647,-0.0971,-0.1013,-0.1205,-0.0904,-0.087,-0.0838,-0.0862,-0.1168,-0.117,-0.1616,-0.1621,-0.1625]}],[{"header":{"parameterUnit":"m.s-1","parameterCategory":2,"la1":30.2991,"la2":30.254,"lo1":-89.0895,"lo2":-89.0444,"dy":0.0017,"dx":0.0017,"nx":28,"ny":28,"refTime":"2023-07-27T21:00:00:Z","depth":"2","parameterNumber":2,"parameterNumberName":"U-component_of_CURRENTS"},"data":[0,0,0,0,0,0,0,0,0,0,0,0,0,0,0,0,0,0,0,0,0,0,0,0,0,0,0,0,0,0,0,0,0,0,0,0,0,0,0,0,0,0,0,0,0,0,0,0,0,0,0,0,0,0,0,0,0,0,0.2739,0.274,0,0.2831,0.2831,0.2832,0.2871,0.2871,0.2871,0.2871,0.2929,0.2931,0.2932,0,0,0,0,0,0,0,0,0,0,0,0,0,0.2611,0.2613,0.2739,0.274,0.2741,0.283,0.2832,0.2833,0.2871,0.2871,0.2871,0.2871,0.2929,0.2931,0.2933,0,0,0,0,0,0,0,0,0,0,0,0,0,0.2679,0.2614,0.2738,0.2773,0.2777,0.283,0.2832,0.2833,0.2871,0.2871,0.2871,0.2871,0.2928,0.2931,0.2933,0.2947,0,0,0.294,0.2941,0,0,0,0,0,0,0,0,0.2675,0.2683,0.2766,0.277,0.2775,0.2841,0.2808,0.287,0.2871,0.2833,0.2871,0.2871,0.2898,0.2903,0.2918,0.295,0.2953,0.294,0.2942,0.2943,0.2943,0,0,0,0,0,0,0,0.267,0.268,0.2773,0.2768,0.2773,0.2789,0.2798,0.282,0.2862,0.2836,0.284,0.2853,0.29,0.2915,0.2919,0.2953,0.294,0.2942,0.2944,0.2945,0.3051,0.3053,0,0,0,0,0,0,0.2663,0.2676,0.277,0.2776,0.2726,0.2791,0.2801,0.2818,0.2863,0.2871,0.2853,0.2855,0.2911,0.2917,0.2922,0.2973,0.2943,0.2945,0.2946,0.305,0.3052,0.3053,0,0,0,0,0,0,0.266,0.267,0.2767,0.2729,0.2743,0.2793,0.2812,0.282,0.2845,0.2876,0.2883,0.287,0.2912,0.2918,0.2961,0.2974,0.2946,0.2948,0.3048,0.305,0.3052,0.3056,0,0,0,0,0,0,0.2656,0.2669,0.2684,0.2729,0.2745,0.2799,0.2812,0.2822,0.2853,0.2857,0.2893,0.2898,0.2912,0.2957,0.2963,0.2977,0.295,0.3046,0.3049,0.3052,0.3054,0.3058,0.3061,0,0,0,0,0,0.2651,0.267,0.2684,0.2696,0.2762,0.28,0.2809,0.2843,0.2854,0.2865,0.2901,0.2898,0.2978,0.296,0.2967,0.2982,0.3045,0.3048,0.3052,0.3052,0.3057,0.3061,0,0,0,0,0,0,0.2624,0.2677,0.2694,0.2729,0.2762,0.2807,0.2825,0.2848,0.2885,0.2891,0.2916,0.2925,0.2968,0.2979,0.2959,0.3023,0.3011,0.3016,0.3009,0.3014,0.3017,0.3017,0.2952,0,0,0,0,0,0.2625,0.2649,0.2699,0.2724,0.2742,0.2784,0.2806,0.283,0.2868,0.2884,0.2909,0.2945,0.2986,0.3002,0.3033,0.3066,0.3101,0.3081,0.3085,0.3088,0.3094,0.3162,0.3173,0.3064,0.3064,0.3064,0,0,0.262,0.2653,0.2667,0.2719,0.2747,0.278,0.2797,0.2831,0.286,0.2884,0.2926,0.2958,0.2999,0.3041,0.306,0.3051,0.3142,0.3092,0.3094,0.3099,0.3167,0.3177,0.3187,0.3066,0.3066,0.3065,0,0,0.2618,0.2651,0.2671,0.2703,0.2751,0.2778,0.2789,0.2837,0.286,0.2906,0.2938,0.2982,0.3028,0.3066,0.3092,0.3136,0.3161,0.3143,0.3157,0.3222,0.3232,0.324,0.3312,0.3327,0.3141,0.3141,0.3141,0,0.2611,0.2647,0.2681,0.2712,0.2739,0.2777,0.2804,0.2838,0.2893,0.2919,0.2918,0.3018,0.3043,0.3115,0.3132,0.3142,0.3188,0.3132,0.3226,0.3235,0.3244,0.3316,0.3332,0.3141,0.3141,0.3141,0.3141,0,0.2626,0.2661,0.2674,0.2725,0.2755,0.2783,0.2834,0.2865,0.2893,0.293,0.2998,0.3044,0.3106,0.3119,0.3139,0.3217,0.3233,0.3224,0.321,0.3255,0.3328,0.3345,0.3142,0.3142,0.3142,0.3142,0,0,0.2601,0.267,0.2678,0.2702,0.2765,0.279,0.2839,0.2896,0.2937,0.2982,0.3041,0.3108,0.3135,0.3168,0.32,0.3251,0.3351,0.3263,0.3266,0.3326,0.3513,0.3309,0.3309,0.3359,0.3362,0.3364,0.3544,0,0.2603,0.2653,0.269,0.2735,0.2764,0.2814,0.2858,0.2915,0.2964,0.3028,0.3086,0.3156,0.3154,0.3196,0.3246,0.3333,0.3395,0.3305,0.3468,0.3473,0.3279,0.332,0.3035,0.315,0.356,0.3563,0.3565,0,0.2612,0.2644,0.2686,0.2748,0.2765,0.28,0.2875,0.2921,0.3018,0.3061,0.3134,0.3188,0.329,0.3272,0.3436,0.3382,0.3452,0.3504,0.3512,0.3329,0.3299,0.3171,0.3166,0.3594,0.3592,0.359,0.3588,0,0.2578,0.2643,0.2672,0.2696,0.2771,0.2802,0.2845,0.2933,0.2987,0.3097,0.3155,0.3261,0.334,0.3435,0.354,0.3508,0.3712,0.3681,0.3569,0.3558,0.3347,0.3309,0.3798,0.3798,0.3797,0.3797,0.3796,0,0.257,0.2595,0.2662,0.2681,0.2723,0.2785,0.2847,0.2907,0.3013,0.3085,0.3176,0.3262,0.3385,0.3506,0.3582,0.3622,0.3755,0.3579,0.3583,0.3338,0.3299,0.3701,0.3688,0.3804,0.3802,0.3801,0.38,0,0.2533,0.2577,0.2614,0.2686,0.271,0.2744,0.2845,0.2895,0.3001,0.3104,0.315,0.3304,0.3455,0.357,0.3743,0.3659,0.3735,0.3724,0.3421,0.338,0.3533,0.3518,0.3601,0.3595,0.359,0.3586,0.3582,0,0.2519,0.2536,0.2603,0.2626,0.266,0.2722,0.2768,0.2878,0.2933,0.3126,0.317,0.3355,0.3429,0.3576,0.3505,0.3556,0.3729,0.3288,0.3129,0.3513,0.3511,0.3503,0.3495,0.2895,0.2886,0.2879,0.2873,0,0.2486,0.2511,0.2539,0.2587,0.2632,0.2677,0.2749,0.2788,0.2923,0.3015,0.3147,0.3226,0.3306,0.3176,0.3176,0.3167,0.3231,0.3131,0.3666,0.2938,0.2847,0.2844,0.286,0.2809,0.2815,0.282,0.2823,0.2826,0.2454,0.2466,0.2505,0.2541,0.2583,0.2608,0.2617,0.2691,0.2761,0.2803,0.2961,0.2933,0.2916,0.2713,0.2693,0.2647,0.2825,0.2706,0.273,0.2762,0.2596,0.2495,0.2364,0.2368,0.2371,0.2374,0.2377,0,0.2409,0.2434,0.2459,0.2484,0.2479,0.2543,0.2582,0.2552,0.2573,0.2568,0.2592,0.2291,0.22,0.2289,0.2062,0.1993,0.2006,0.1986,0.2007,0.2068,0.2123,0.1928,0.1519,0.1517,0.1515,0.1513,0,0,0.2389,0.239,0.2399,0.2369,0.2388,0.2362,0.2363,0.2322,0.2282,0.2082,0.1965,0.1997,0.2103,0.1739,0.1706,0.1602,0.1837,0.1547,0.2221,0.2302,0.2356,0.2506,0.2267,0,0,0,0,0]},{"header":{"parameterUnit":"m.s-1","parameterCategory":2,"la1":30.2991,"la2":30.254,"lo1":-89.0895,"lo2":-89.0444,"dy":0.0017,"dx":0.0017,"nx":28,"ny":28,"refTime":"2023-07-27T21:00:00:Z","depth":"2","parameterNumber":3,"parameterNumberName":"V-component_of_CURRENTS"},"data":[0,0,0,0,0,0,0,0,0,0,0,0,0,0,0,0,0,0,0,0,0,0,0,0,0,0,0,0,0,0,0,0,0,0,0,0,0,0,0,0,0,0,0,0,0,0,0,0,0,0,0,0,0,0,0,0,0,0,-0.0159,-0.0159,0,-0.0187,-0.0188,-0.0188,-0.0206,-0.0206,-0.0206,-0.0206,-0.0252,-0.0253,-0.0254,0,0,0,0,0,0,0,0,0,0,0,0,0,-0.0135,-0.0135,-0.0159,-0.0159,-0.0159,-0.0187,-0.0188,-0.0188,-0.0206,-0.0206,-0.0206,-0.0206,-0.0252,-0.0253,-0.0255,0,0,0,0,0,0,0,0,0,0,0,0,0,-0.0152,-0.0135,-0.0159,-0.0172,-0.0173,-0.0187,-0.0188,-0.0188,-0.0206,-0.0206,-0.0206,-0.0206,-0.0251,-0.0253,-0.0255,-0.0262,0,0,-0.026,-0.0261,0,0,0,0,0,0,0,0,-0.0151,-0.0153,-0.0169,-0.0171,-0.0173,-0.0193,-0.0196,-0.0214,-0.0206,-0.0193,-0.0206,-0.0206,-0.0234,-0.0237,-0.0242,-0.0264,-0.0266,-0.026,-0.0261,-0.0262,-0.0262,0,0,0,0,0,0,0,-0.015,-0.0152,-0.017,-0.017,-0.0172,-0.0182,-0.0184,-0.0199,-0.0213,-0.0194,-0.0196,-0.0199,-0.0235,-0.024,-0.0243,-0.0266,-0.026,-0.0261,-0.0263,-0.0263,-0.0272,-0.0271,0,0,0,0,0,0,-0.0146,-0.0151,-0.0169,-0.0171,-0.0162,-0.0182,-0.0185,-0.0186,-0.0212,-0.0216,-0.0199,-0.02,-0.0237,-0.0241,-0.0245,-0.0225,-0.0262,-0.0263,-0.0264,-0.0273,-0.0272,-0.0271,0,0,0,0,0,0,-0.0145,-0.0147,-0.0168,-0.0162,-0.0165,-0.0182,-0.0184,-0.0187,-0.0178,-0.0215,-0.022,-0.0186,-0.0237,-0.0242,-0.0241,-0.0228,-0.0264,-0.0266,-0.0274,-0.0272,-0.0271,-0.0204,0,0,0,0,0,0,-0.0144,-0.0147,-0.0137,-0.0161,-0.0165,-0.0162,-0.0184,-0.0187,-0.0181,-0.0182,-0.0206,-0.0211,-0.0238,-0.0238,-0.0242,-0.0231,-0.0267,-0.0275,-0.0273,-0.0272,-0.0207,-0.02,-0.0195,0,0,0,0,0,-0.0143,-0.0132,-0.0137,-0.0138,-0.0155,-0.0161,-0.0163,-0.0176,-0.018,-0.017,-0.0184,-0.021,-0.0232,-0.0238,-0.0244,-0.0232,-0.0275,-0.0273,-0.0272,-0.0209,-0.0202,-0.0195,0,0,0,0,0,0,-0.0111,-0.0133,-0.0139,-0.0133,-0.0139,-0.0164,-0.0156,-0.0163,-0.0166,-0.0164,-0.0197,-0.0203,-0.0198,-0.0222,-0.0227,-0.0231,-0.0259,-0.0259,-0.021,-0.0203,-0.0197,-0.0181,-0.0268,0,0,0,0,0,-0.01,-0.0101,-0.0119,-0.0111,-0.0113,-0.0129,-0.013,-0.0138,-0.0149,-0.015,-0.0164,-0.0182,-0.0197,-0.0203,-0.022,-0.0218,-0.0245,-0.0216,-0.0209,-0.0204,-0.0194,-0.0234,-0.0231,-0.0265,-0.0265,-0.0265,0,0,-0.0085,-0.0097,-0.0096,-0.0104,-0.0112,-0.0102,-0.0129,-0.0124,-0.0113,-0.0155,-0.0136,-0.0158,-0.0191,-0.019,-0.0191,-0.0207,-0.0205,-0.0202,-0.0197,-0.019,-0.0232,-0.0229,-0.0226,-0.0264,-0.0264,-0.0264,0,0,-0.0056,-0.0064,-0.0053,-0.0056,-0.0062,-0.0072,-0.0064,-0.0075,-0.0075,-0.0063,-0.0094,-0.0105,-0.0118,-0.0144,-0.016,-0.0129,-0.017,-0.0133,-0.0091,-0.013,-0.0128,-0.0126,-0.014,-0.014,-0.0132,-0.0132,-0.0132,0,-0.0034,-0.0023,-0.0048,-0.0036,-0.0029,-0.0053,-0.0029,-0.0035,-0.0041,-0.0036,-0.0046,-0.0069,-0.0099,-0.0109,-0.0099,-0.0116,-0.0135,-0.0116,-0.0122,-0.0121,-0.0121,-0.0136,-0.0137,-0.0129,-0.0129,-0.0129,-0.013,0,-0.0002,0.0015,0.0024,0.003,0.0034,0.0051,0.0038,0.0049,0.0048,0.0039,0.0041,0.0001,-0.0014,-0.0029,-0.0053,-0.0062,-0.0073,-0.0109,-0.014,-0.0113,-0.013,-0.0133,-0.0124,-0.0125,-0.0126,-0.0127,0,0,0.0032,0.0046,0.0052,0.0074,0.0075,0.0084,0.0103,0.0114,0.0136,0.0118,0.014,0.01,0.0078,0.0059,0.0019,-0.0015,-0.0027,-0.005,-0.0054,-0.0061,-0.009,-0.0146,-0.0155,-0.0064,-0.0065,-0.0065,-0.0097,0,0.0074,0.0115,0.0108,0.016,0.0186,0.0174,0.0197,0.02,0.0199,0.0213,0.0161,0.0166,0.0109,0.011,0.0065,0.0002,-0.0032,-0.0013,-0.0117,-0.0119,-0.0172,-0.0159,-0.0158,-0.0192,-0.01,-0.0101,-0.0101,0,0.0113,0.0137,0.0192,0.0236,0.0247,0.0272,0.0309,0.0327,0.0323,0.0323,0.0303,0.0267,0.0227,0.0171,0.0069,0.0087,0.001,-0.005,-0.0054,-0.0133,-0.0181,-0.0208,-0.02,-0.0105,-0.0105,-0.0105,-0.0104,0,0.0153,0.0201,0.025,0.0263,0.03,0.0328,0.0354,0.0364,0.0394,0.0396,0.0419,0.0352,0.034,0.0228,0.0118,0.0092,0.0008,-0.0052,-0.0177,-0.0181,-0.0213,-0.022,-0.0134,-0.0134,-0.0134,-0.0133,-0.0133,0,0.0201,0.0244,0.0276,0.0304,0.0372,0.0381,0.045,0.0463,0.0491,0.0544,0.0482,0.0516,0.0353,0.0288,0.0158,0.0002,0.0035,-0.0162,-0.0198,-0.0188,-0.0192,-0.015,-0.0152,-0.0135,-0.0134,-0.0134,-0.0134,0,0.024,0.0259,0.0321,0.0372,0.0393,0.0444,0.0518,0.0567,0.0589,0.0657,0.0667,0.0637,0.0567,0.0406,0.0242,0.0063,-0.0086,-0.0151,-0.0114,-0.0147,-0.0261,-0.0259,-0.0317,-0.0319,-0.0321,-0.0323,-0.0324,0,0.0266,0.0299,0.0368,0.041,0.0438,0.0512,0.0567,0.0611,0.067,0.0749,0.0792,0.0756,0.0763,0.0505,0.0199,-0.0051,-0.006,-0.0254,-0.0334,-0.0254,-0.0282,-0.0277,-0.0272,-0.0334,-0.0336,-0.0337,-0.0338,0,0.0316,0.0337,0.0384,0.0467,0.0533,0.0616,0.0702,0.0766,0.0838,0.0926,0.1036,0.1057,0.0802,0.0535,0.0158,-0.0016,-0.0225,-0.0291,-0.0206,-0.0299,-0.0277,-0.0303,-0.0296,-0.0348,-0.0347,-0.0346,-0.0346,-0.0345,0.0352,0.0395,0.0454,0.0533,0.0611,0.0724,0.0818,0.0934,0.1078,0.1213,0.1184,0.118,0.0828,0.0328,0.0052,-0.0275,-0.0286,-0.0442,-0.0436,-0.0429,-0.0436,-0.042,-0.0517,-0.0517,-0.0517,-0.0517,-0.0517,0,0.0397,0.0445,0.052,0.0623,0.0719,0.0754,0.0909,0.1035,0.1248,0.1293,0.1371,0.0999,0.0701,0.0363,-0.016,-0.0479,-0.0466,-0.054,-0.0475,-0.0465,-0.0457,-0.0463,-0.0552,-0.0552,-0.0552,-0.0553,0,0,0.0427,0.0498,0.0536,0.0693,0.0776,0.0933,0.1038,0.1249,0.1326,0.1401,0.1323,0.117,0.0721,0.0319,-0.0058,-0.0302,-0.0299,-0.0332,-0.0285,-0.0155,-0.0142,-0.0395,-0.0394,0,0,0,0,0]}],[{"header":{"parameterUnit":"m.s-1","parameterCategory":2,"la1":30.2991,"la2":30.254,"lo1":-89.0895,"lo2":-89.0444,"dy":0.0017,"dx":0.0017,"nx":28,"ny":28,"refTime":"2023-07-27T21:00:00:Z","depth":"4","parameterNumber":2,"parameterNumberName":"U-component_of_CURRENTS"},"data":[0,0,0,0,0,0,0,0,0,0,0,0,0,0,0,0,0,0,0,0,0,0,0,0,0,0,0,0,0,0,0,0,0,0,0,0,0,0,0,0,0,0,0,0,0,0,0,0,0,0,0,0,0,0,0,0,0,0,0.0731,0.0731,0,0.0787,0.0788,0.0789,0.0875,0.0876,0.0877,0.0878,0.0934,0.0934,0.0935,0,0,0,0,0,0,0,0,0,0,0,0,0,0.0619,0.0622,0.0731,0.0731,0.0731,0.0787,0.0788,0.079,0.0875,0.0876,0.0878,0.0879,0.0933,0.0934,0.0935,0,0,0,0,0,0,0,0,0,0,0,0,0,0.0676,0.0623,0.0731,0.0777,0.0781,0.0787,0.0788,0.079,0.0875,0.0876,0.0878,0.0879,0.0933,0.0934,0.0935,0.0907,0,0,0.0937,0.0937,0,0,0,0,0,0,0,0,0.0673,0.068,0.077,0.0774,0.0779,0.0821,0.0769,0.0827,0.0874,0.0844,0.0878,0.088,0.0891,0.0896,0.091,0.091,0.0912,0.0937,0.0937,0.0938,0.0938,0,0,0,0,0,0,0,0.0669,0.0678,0.0758,0.077,0.0775,0.0768,0.0779,0.0781,0.0862,0.0847,0.0852,0.085,0.0895,0.0909,0.0912,0.0913,0.0937,0.0938,0.0938,0.0938,0.102,0.1022,0,0,0,0,0,0,0.0654,0.0675,0.0756,0.0759,0.0723,0.0768,0.0781,0.081,0.0862,0.087,0.0849,0.0854,0.0907,0.0911,0.0914,0.0981,0.0938,0.0938,0.0939,0.1018,0.102,0.1022,0,0,0,0,0,0,0.0652,0.0662,0.0754,0.0712,0.0723,0.0769,0.08,0.081,0.0842,0.0863,0.0872,0.0872,0.0909,0.0913,0.0939,0.098,0.0939,0.0939,0.1016,0.1019,0.1021,0.1054,0,0,0,0,0,0,0.0649,0.0662,0.0697,0.0712,0.0725,0.0778,0.0799,0.081,0.0835,0.0843,0.0885,0.0891,0.091,0.0938,0.094,0.0981,0.094,0.1014,0.1017,0.102,0.105,0.1057,0.1063,0,0,0,0,0,0.0646,0.068,0.0699,0.0709,0.0766,0.0778,0.0785,0.0824,0.0834,0.0857,0.0883,0.0891,0.0961,0.0939,0.0941,0.0983,0.1012,0.1016,0.102,0.1047,0.1056,0.1062,0,0,0,0,0,0,0.0664,0.0691,0.0713,0.0761,0.0776,0.0791,0.0818,0.0824,0.0862,0.0885,0.0893,0.0901,0.0939,0.0953,0.0928,0.102,0.0996,0.1,0.1016,0.1024,0.103,0.1043,0.094,0,0,0,0,0,0.0677,0.0703,0.0727,0.0763,0.0777,0.0795,0.0809,0.0836,0.0857,0.0878,0.0913,0.0946,0.0953,0.0981,0.0998,0.1037,0.1027,0.1074,0.108,0.1085,0.1099,0.1099,0.1106,0.1035,0.1035,0.1035,0,0,0.0683,0.0708,0.0721,0.0766,0.0787,0.0811,0.0812,0.0847,0.0868,0.0874,0.0941,0.0957,0.0961,0.1013,0.1035,0.1036,0.1101,0.109,0.1094,0.1106,0.1104,0.111,0.1116,0.1038,0.1037,0.1037,0,0,0.0694,0.0745,0.0766,0.0785,0.0822,0.0839,0.0846,0.089,0.0921,0.0964,0.0972,0.1012,0.1052,0.1074,0.1075,0.1122,0.1116,0.1144,0.1205,0.1204,0.1209,0.1214,0.1204,0.1208,0.1168,0.1168,0.1168,0,0.0705,0.0748,0.0771,0.0799,0.0822,0.0848,0.0878,0.0898,0.0951,0.0984,0.1001,0.1072,0.1079,0.1105,0.1141,0.1135,0.1134,0.117,0.121,0.1214,0.1218,0.1207,0.1211,0.117,0.117,0.117,0.1169,0,0.0721,0.0768,0.0782,0.0831,0.086,0.0891,0.0921,0.0973,0.1016,0.1049,0.1112,0.1132,0.1187,0.1193,0.1182,0.1227,0.1214,0.1196,0.1184,0.1227,0.1213,0.1216,0.1173,0.1172,0.1172,0.1171,0,0,0.0701,0.0779,0.0784,0.082,0.0888,0.0905,0.0959,0.1014,0.1049,0.1129,0.1178,0.1217,0.1265,0.1271,0.1273,0.1285,0.1306,0.1274,0.1273,0.1253,0.1307,0.1258,0.1256,0.1297,0.1298,0.1299,0.1282,0,0.0709,0.0765,0.0806,0.0861,0.0899,0.0954,0.0992,0.1052,0.1109,0.1173,0.1212,0.1261,0.1277,0.1314,0.1333,0.1305,0.1318,0.1312,0.128,0.1279,0.122,0.1259,0.1302,0.1284,0.1285,0.1285,0.1286,0,0.071,0.0751,0.0812,0.0893,0.0914,0.0962,0.105,0.1089,0.1173,0.122,0.1305,0.1332,0.1386,0.1374,0.1389,0.139,0.1369,0.1339,0.1337,0.1286,0.1236,0.1236,0.129,0.129,0.129,0.1289,0.1289,0,0.0678,0.0755,0.0808,0.0833,0.0924,0.0981,0.1046,0.1134,0.1178,0.1271,0.1328,0.1384,0.1432,0.1419,0.1414,0.1405,0.1398,0.1366,0.1297,0.1292,0.1323,0.1318,0.1364,0.1364,0.1364,0.1364,0.1364,0,0.0666,0.0699,0.0807,0.0833,0.0904,0.0985,0.1063,0.1136,0.1233,0.1286,0.1374,0.141,0.145,0.1461,0.1427,0.1388,0.142,0.1316,0.1291,0.1337,0.1334,0.1324,0.1319,0.1363,0.1363,0.1363,0.1364,0,0.0605,0.0675,0.0727,0.0842,0.0898,0.0946,0.1088,0.1131,0.1245,0.1318,0.1358,0.1453,0.1469,0.1481,0.1448,0.1409,0.1355,0.1325,0.1385,0.1361,0.124,0.1238,0.1239,0.1237,0.1236,0.1235,0.1234,0,0.0574,0.0602,0.0724,0.0778,0.0843,0.0939,0.101,0.1132,0.117,0.1318,0.1334,0.142,0.1458,0.1389,0.1397,0.1342,0.132,0.1296,0.1266,0.1255,0.123,0.123,0.123,0.1231,0.1231,0.1231,0.123,0,0.0509,0.0557,0.0607,0.0721,0.081,0.0877,0.0992,0.1005,0.1125,0.1236,0.1291,0.1325,0.1346,0.1333,0.1325,0.1271,0.1313,0.128,0.1282,0.1253,0.1246,0.1223,0.1224,0.1225,0.1226,0.1226,0.1227,0,0.0464,0.0471,0.0566,0.0647,0.0746,0.0806,0.0863,0.0932,0.099,0.1149,0.115,0.1242,0.1322,0.1295,0.1265,0.1244,0.1211,0.1164,0.1171,0.1177,0.1166,0.1148,0.1085,0,0,0,0,0,0.0432,0.0446,0.0507,0.0588,0.0672,0.074,0.0846,0.0891,0.0986,0.1002,0.1084,0.11,0.1133,0.1165,0.1123,0.1205,0.1191,0.1151,0.1134,0.1198,0.1203,0.1198,0,0,0,0,0,0,0.0412,0.0465,0.0474,0.0521,0.0566,0.065,0.0706,0.0783,0.0784,0.0901,0.0909,0.1036,0.1052,0.1138,0.1101,0.111,0.1079,0.1209,0.1207,0.1194,0.1199,0.1204,0.12,0,0,0,0,0]},{"header":{"parameterUnit":"m.s-1","parameterCategory":2,"la1":30.2991,"la2":30.254,"lo1":-89.0895,"lo2":-89.0444,"dy":0.0017,"dx":0.0017,"nx":28,"ny":28,"refTime":"2023-07-27T21:00:00:Z","depth":"4","parameterNumber":3,"parameterNumberName":"V-component_of_CURRENTS"},"data":[0,0,0,0,0,0,0,0,0,0,0,0,0,0,0,0,0,0,0,0,0,0,0,0,0,0,0,0,0,0,0,0,0,0,0,0,0,0,0,0,0,0,0,0,0,0,0,0,0,0,0,0,0,0,0,0,0,0,-0.0061,-0.0061,0,-0.0111,-0.0112,-0.0113,-0.0174,-0.0175,-0.0175,-0.0175,-0.0262,-0.0263,-0.0265,0,0,0,0,0,0,0,0,0,0,0,0,0,-0.0015,-0.0016,-0.0061,-0.0061,-0.0061,-0.0111,-0.0112,-0.0113,-0.0174,-0.0175,-0.0175,-0.0175,-0.0261,-0.0263,-0.0266,0,0,0,0,0,0,0,0,0,0,0,0,0,-0.0053,-0.0017,-0.0061,-0.0092,-0.0095,-0.0111,-0.0112,-0.0114,-0.0174,-0.0175,-0.0175,-0.0176,-0.026,-0.0263,-0.0266,-0.0273,0,0,-0.0275,-0.0276,0,0,0,0,0,0,0,0,-0.0051,-0.0056,-0.0088,-0.009,-0.0093,-0.0131,-0.0127,-0.0167,-0.0174,-0.0151,-0.0175,-0.0176,-0.0217,-0.0223,-0.024,-0.0277,-0.0281,-0.0275,-0.0277,-0.0278,-0.0279,0,0,0,0,0,0,0,-0.0048,-0.0054,-0.0087,-0.0087,-0.0091,-0.0103,-0.011,-0.0136,-0.0186,-0.0153,-0.0156,-0.0151,-0.022,-0.0237,-0.0243,-0.0282,-0.0275,-0.0278,-0.0279,-0.0281,-0.0389,-0.039,0,0,0,0,0,0,-0.0029,-0.0051,-0.0085,-0.0088,-0.0066,-0.0103,-0.0111,-0.0124,-0.0185,-0.0192,-0.0151,-0.0154,-0.0232,-0.0239,-0.0246,-0.0279,-0.0278,-0.0281,-0.0283,-0.0387,-0.0389,-0.039,0,0,0,0,0,0,-0.0028,-0.0032,-0.0083,-0.0065,-0.0071,-0.0102,-0.0117,-0.0124,-0.0139,-0.0181,-0.0191,-0.0156,-0.0233,-0.0242,-0.0276,-0.0282,-0.0282,-0.0285,-0.0386,-0.0388,-0.0389,-0.0332,0,0,0,0,0,0,-0.0027,-0.0032,-0.0041,-0.0064,-0.0071,-0.0094,-0.0116,-0.0125,-0.0132,-0.0137,-0.0189,-0.0198,-0.0234,-0.0272,-0.0279,-0.0286,-0.0287,-0.0385,-0.0387,-0.0389,-0.0333,-0.0332,-0.0331,0,0,0,0,0,-0.0026,-0.0031,-0.0042,-0.0046,-0.0082,-0.0093,-0.01,-0.0127,-0.0132,-0.0142,-0.0179,-0.0197,-0.0291,-0.0274,-0.0283,-0.0291,-0.0384,-0.0386,-0.0389,-0.0333,-0.0332,-0.0331,0,0,0,0,0,0,-0.002,-0.0038,-0.0051,-0.0064,-0.0077,-0.0101,-0.0109,-0.0118,-0.0155,-0.0164,-0.0201,-0.0213,-0.0247,-0.028,-0.0261,-0.0333,-0.0344,-0.0348,-0.0299,-0.0298,-0.0297,-0.0287,-0.029,0,0,0,0,0,-0.0019,-0.0029,-0.0046,-0.0056,-0.0062,-0.0082,-0.009,-0.0108,-0.0135,-0.0151,-0.019,-0.0234,-0.0265,-0.0288,-0.0327,-0.0358,-0.0381,-0.0375,-0.0374,-0.0373,-0.0374,-0.0408,-0.0409,-0.0398,-0.0398,-0.0398,0,0,-0.0016,-0.0027,-0.0033,-0.0054,-0.0069,-0.0074,-0.0091,-0.0103,-0.0108,-0.0154,-0.0187,-0.0226,-0.0271,-0.0311,-0.0331,-0.0339,-0.0389,-0.0376,-0.0374,-0.0376,-0.0411,-0.0412,-0.0412,-0.04,-0.04,-0.0399,0,0,-0.0005,-0.0028,-0.003,-0.0038,-0.0053,-0.0069,-0.0065,-0.0096,-0.0114,-0.0144,-0.0178,-0.022,-0.0276,-0.0313,-0.0333,-0.035,-0.0377,-0.0369,-0.0359,-0.0391,-0.0392,-0.0393,-0.0414,-0.0417,-0.0375,-0.0374,-0.0374,0,-0.0002,-0.0009,-0.0031,-0.003,-0.0032,-0.0059,-0.0057,-0.0075,-0.0116,-0.0132,-0.0152,-0.0239,-0.0275,-0.0309,-0.0324,-0.0345,-0.0366,-0.035,-0.0387,-0.0388,-0.039,-0.0411,-0.0415,-0.0372,-0.0372,-0.0372,-0.0373,0,0.0014,0.0006,0.0007,-0.0005,-0.0013,-0.0016,-0.0036,-0.0059,-0.0084,-0.011,-0.0157,-0.0215,-0.0269,-0.0289,-0.031,-0.0344,-0.0355,-0.0371,-0.0378,-0.0387,-0.041,-0.0415,-0.0368,-0.0369,-0.037,-0.0371,0,0,0.0031,0.002,0.0021,0.0022,0.0,-0.0002,-0.0014,-0.0036,-0.0041,-0.0102,-0.0121,-0.0186,-0.0228,-0.0256,-0.0294,-0.0329,-0.0355,-0.0356,-0.0359,-0.0357,-0.0421,-0.0398,-0.0402,-0.0374,-0.0375,-0.0376,-0.0428,0,0.0051,0.0062,0.0048,0.0056,0.0058,0.003,0.0026,-0.0,-0.0035,-0.0068,-0.0129,-0.0166,-0.0209,-0.0235,-0.0278,-0.0338,-0.0368,-0.0339,-0.0431,-0.0434,-0.0396,-0.0407,-0.0378,-0.0432,-0.0433,-0.0434,-0.0434,0,0.0073,0.0078,0.0093,0.0087,0.0086,0.0085,0.0068,0.0059,0.0009,-0.0018,-0.0077,-0.0126,-0.019,-0.0221,-0.0326,-0.0306,-0.0359,-0.0404,-0.0407,-0.041,-0.0421,-0.0429,-0.0444,-0.0443,-0.0443,-0.0442,-0.0441,0,0.0105,0.0108,0.0123,0.0124,0.0114,0.0113,0.0103,0.0068,0.0068,0.0011,-0.0004,-0.0094,-0.0135,-0.0222,-0.0327,-0.0327,-0.0438,-0.0447,-0.0474,-0.0473,-0.05,-0.0499,-0.0511,-0.0511,-0.0511,-0.0511,-0.0511,0,0.013,0.0141,0.0141,0.0152,0.017,0.0147,0.0159,0.0133,0.0109,0.011,0.0025,-0.0001,-0.0137,-0.0221,-0.0316,-0.0413,-0.0432,-0.0472,-0.0486,-0.0476,-0.0472,-0.0503,-0.0502,-0.0513,-0.0512,-0.0512,-0.0512,0,0.0155,0.0156,0.0176,0.0181,0.0185,0.0197,0.0207,0.0215,0.0185,0.0183,0.017,0.0068,-0.0046,-0.0178,-0.0323,-0.0384,-0.0486,-0.0513,-0.0487,-0.0499,-0.0499,-0.0494,-0.0541,-0.054,-0.054,-0.054,-0.054,0,0.0167,0.0184,0.0208,0.0228,0.0231,0.0252,0.0269,0.0254,0.0265,0.0226,0.0225,0.0119,0.0039,-0.0149,-0.0296,-0.0467,-0.0487,-0.0526,-0.0518,-0.0493,-0.0503,-0.0499,-0.0495,-0.0539,-0.0539,-0.0539,-0.0539,0,0.0194,0.0205,0.0224,0.027,0.0296,0.0327,0.0345,0.0363,0.0348,0.0335,0.0279,0.017,0.0042,-0.0131,-0.0266,-0.039,-0.0496,-0.0523,-0.0525,-0.0518,-0.0492,-0.0501,-0.0498,-0.0538,-0.0538,-0.0538,-0.0538,0,0.0215,0.0233,0.0264,0.03,0.0338,0.0368,0.0384,0.0392,0.0398,0.036,0.0339,0.0189,0.0098,-0.0092,-0.0222,-0.034,-0.0363,-0.038,-0.0389,-0.0392,-0.0337,-0.0282,-0.0275,0,0,0,0,0,0.0233,0.0249,0.0289,0.0321,0.0363,0.038,0.0417,0.043,0.0427,0.0407,0.0377,0.0257,0.0062,-0.0043,-0.0155,-0.0224,-0.0392,-0.0358,-0.0418,-0.0533,-0.0534,-0.0493,0,0,0,0,0,0,0.0238,0.0276,0.0286,0.033,0.0354,0.0396,0.0417,0.0425,0.0409,0.0392,0.028,0.0244,0.0037,0.012,-0.0158,-0.0196,-0.0243,-0.0453,-0.0455,-0.0532,-0.0533,-0.0534,-0.0493,0,0,0,0,0]}]]